Weather History for Rionegro, Colombia

Change the Weather History Date:

Thursday, December 6, 2012

  Actual Average Record
Temperature  
Mean Temperature 62 °F -  
Max Temperature 69 °F 68 °F 75 °F (1997)
Min Temperature 56 °F 53 °F 51 °F (1997)
Degree Days  
Heating Degree Days 2    
Growing Degree Days 12 (Base 50)    
Moisture  
Dew Point 56 °F    
Average Humidity 83    
Maximum Humidity 100    
Minimum Humidity 49    
Precipitation  
Precipitation 0.00 in - - ()
Sea Level Pressure  
Sea Level Pressure 30.26 in    
Wind  
Wind Speed 3 mph ()    
Max Wind Speed 13 mph    
Max Gust Speed -    
Visibility 5.9 miles    
Events Fog , Rain , Thunderstorm    
Averages and records for this station are not official NWS values.
T = Trace of Precipitation, MM = Missing Value Source: Averaged Metar Reports

Daily Weather History Graph

Daily Weather History Graph

Search for Another Location

Airport:

Trip Planner

Search our weather history database for the weather conditions in past years. The results will help you decide how hot, cold, wet, or windy it might be!

Date:

Astronomy

Dec. 06, 2012 Rise Set
Actual Time 5:59 AM COT 5:46 PM COT
Civil Twilight 5:37 AM COT 6:08 PM COT
Nautical Twilight 5:11 AM COT 6:34 PM COT
Astronomical Twilight 4:45 AM COT 7:00 PM COT
Moon No Moon Rise 11:58 AM COT (12/6)
Length of Visible Light 12h 31m
Length of Day
11h 46m
Waning Gibbous, 49% of the Moon is Illuminated
Dec 6
Waning Gibbous
Dec 13
New
Dec 20
First Quarter
Dec 28
Full
Jan 4
Last Quarter

Hourly Weather History & Observations

Time (COT) Temp. Dew Point Humidity Pressure Visibility Wind Dir Wind Speed Gust Speed Precip Events Conditions
12:00 AM 59.0 °F 57.2 °F 94% 30.28 in 3.7 mi ENE 4.6 mph - N/A Fog Fog
1:00 AM 58 °F 57 °F 95%  in 3 mi SE 4.5 mph - - Rain Drizzle
1:00 AM 59.0 °F 57.2 °F 94% 30.25 in 3.1 mi SE 4.6 mph - N/A   Drizzle
2:00 AM 59.0 °F 57.2 °F 94% 30.23 in 3.1 mi SW 4.6 mph - N/A Fog Patches of Fog
3:00 AM 59.0 °F 57.2 °F 94% 30.22 in 3.1 mi Calm Calm - N/A Fog Patches of Fog
4:00 AM 58 °F 56 °F 92%  in 2 mi Calm Calm - - Fog Patches of Fog
4:00 AM 57.2 °F 57.2 °F 100% 30.21 in 2.5 mi Calm Calm - N/A Fog Patches of Fog
5:00 AM 57.2 °F 55.4 °F 94% 30.21 in 3.1 mi Calm Calm - N/A Fog Patches of Fog
5:30 AM 57.2 °F 55.4 °F 94% 30.24 in 3.1 mi Calm Calm - N/A Fog Patches of Fog
6:00 AM 57.2 °F 55.4 °F 94% 30.24 in 3.1 mi Variable 2.3 mph - N/A Fog Patches of Fog
7:00 AM 57 °F 55 °F 90%  in 6 mi North 4.5 mph - -   Haze
7:00 AM 57.2 °F 55.4 °F 94% 30.25 in 6.2 mi North 4.6 mph - N/A   Scattered Clouds
8:00 AM 59.0 °F 55.4 °F 88% 30.27 in 6.2 mi ENE 4.6 mph - N/A   Scattered Clouds
9:00 AM 60.8 °F 55.4 °F 82% 30.34 in 5.0 mi Variable 2.3 mph - N/A   Scattered Clouds
10:00 AM 64 °F 54 °F 61%  in 12 mi South 4.5 mph - -   Haze
10:00 AM 62.6 °F 57.2 °F 82% 30.32 in 6.2 mi NNE 6.9 mph - N/A   Mostly Cloudy
11:00 AM 64.4 °F 55.4 °F 73% 30.32 in 6.2 mi Calm Calm - N/A   Scattered Clouds
12:00 PM 66.2 °F 51.8 °F 60% 30.30 in 6.2 mi Variable 2.3 mph - N/A   Scattered Clouds
1:00 PM 68 °F 53 °F 49%  in 12 mi East 6.7 mph - -   Haze
1:00 PM 66.2 °F 57.2 °F 73% 30.26 in 6.2 mi NE 12.7 mph - N/A Rain , Thunderstorm Thunderstorms and Rain
2:00 PM 66.2 °F 55.4 °F 68% 30.26 in 6.2 mi NNW 9.2 mph - N/A   Mostly Cloudy
3:00 PM 66.2 °F 55.4 °F 68% 30.25 in 6.2 mi East 6.9 mph - N/A   Mostly Cloudy
4:00 PM 67 °F 53 °F 50%  in 12 mi East 6.7 mph - -   Haze
4:00 PM 64.4 °F 59.0 °F 83% 30.20 in 6.2 mi ENE 8.1 mph - N/A   Scattered Clouds
5:00 PM 62.6 °F 57.2 °F 82% 30.20 in 6.2 mi NNE 9.2 mph - N/A Rain Rain
6:00 PM 60.8 °F 59.0 °F 94% 30.21 in 5.0 mi North 6.9 mph - N/A   Scattered Clouds
7:00 PM 62 °F 58 °F 81%  in 12 mi NE 6.7 mph - -   Haze
7:00 PM 64.4 °F 57.2 °F 77% 30.26 in 6.2 mi East 9.2 mph - N/A   Mostly Cloudy
8:00 PM 62.6 °F 60.8 °F 94% 30.28 in 6.2 mi Variable 2.3 mph - N/A   Scattered Clouds
9:00 PM 60.8 °F 59.0 °F 94% 30.31 in 6.2 mi Calm Calm - N/A   Mostly Cloudy
10:00 PM 60 °F 57 °F 88%  in 9 mi Calm Calm - -   Haze
10:00 PM 60.8 °F 57.2 °F 88% 30.27 in 6.2 mi Calm Calm - N/A   Scattered Clouds
11:00 PM 60.8 °F 57.2 °F 88% 30.27 in 6.2 mi Calm Calm - N/A   Scattered Clouds